Tracking 19969 objects as of 14-Nov-2019
Live streaming from Space Station
objects crossing your sky now
Track the group of recently launched Starlink satellites

RUBIN 2

Track RUBIN 2 now!
10-day predictions
RUBIN 2 is classified as:


NORAD ID: 27605
Int'l Code: 2002-058A
Perigee: 600.3 km
Apogee: 703.8 km
Inclination: 64.6 °
Period: 97.6 minutes
Semi major axis: 7023 km
RCS: 0.234 m2 (medium)
Launch date: December 20, 2002
Source: Germany (GER)
Launch site: TYURATAM MISSILE AND SPACE COMPLEX (TTMTR)

Uplink (MHz): 435.275
Downlink (MHz): 145.825
Beacon (MHz):
Mode: U/1200 D/9600 MSK
Call sign:
Status: Inactive

aabbcc
Your satellite tracking list
Your tracking list is empty




NASA's NSSDC Master Catalog

Two Line Element Set (TLE):
1 27605U 02058A   19317.45883908 -.00000082  00000-0  94113-5 0  9995
2 27605  64.5549 302.1130 0073646 227.7162 131.7683 14.75070454909169
Source of the keplerian elements: AFSPC